Regional Weather Roundup
Issued by NWS Spokane, WA

Home | Current Version | Previous Version | Text Only | Print | Product List | Glossary On
Versions: 1 2 3 4 5 6 7 8 9 10 11 12 13 14 15 16 17 18 19 20 21 22 23 24 25 26 27 28 29 30 31 32 33 34 35 36 37 38 39 40 41 42 43 44 45 46 47 48 49 50
000
NZUS01 KOTX 282110
RWROTX
EASTERN WASHINGTON/NORTHERN IDAHO ROUNDUP
NATIONAL WEATHER SERVICE, SPOKANE WA
100 PM PST WED JAN 28 2015

Note: "fair" indicated few or no clouds below 12,000 feet with no
significant weather and/or obstructions to visibility.

...NORTHEAST WASHINGTON AND NORTHERN IDAHO PANHANDLE...

CITY           SKY/WX    TMP DP  RH WIND       PRES   REMARKS
SPOKANE INTL   FOG       36  36 100 NE7       30.38S VSB 1/2
SPOKANE DOWNTO CLOUDY    40  35  83 N5        30.40S
COEUR D ALENE  CLOUDY    41  36  81 CALM      30.37S
DEER PARK      CLOUDY    36  33  89 NE5       30.41R
SANDPOINT      CLOUDY    36  36 100 CALM      30.40R
BONNERS FERRY  CLOUDY    37  37 100 CALM      30.38S

...SOUTHEAST WASHINGTON AND SOUTHERN IDAHO PANHANDLE...

CITY           SKY/WX    TMP DP  RH WIND       PRES   REMARKS
WALLA WALLA    FOG       36  35  96 CALM      30.41S VSB<1/4
PULLMAN/MOSCOW PTSUNNY   47  38  71 NW6       30.38S
LEWISTON       CLOUDY    42  39  89 CALM      30.39F
LOWELL           N/A     44  37  76 S3        30.39F

...COLUMBIA BASIN...

CITY           SKY/WX    TMP DP  RH WIND       PRES   REMARKS
EPHRATA        CLOUDY    36  33  89 N8        30.42F
MOSES LAKE     CLOUDY    36  33  89 NE6       30.43F
TRI CITIES     CLOUDY    40  37  89 N6        30.45F
HERMISTON      CLOUDY    38  37  97 NE13      30.40F
PENDLETON      MOSUNNY   48  44  86 NW10      30.35F

...EAST SLOPES CASCADES...

CITY           SKY/WX    TMP DP  RH WIND       PRES   REMARKS
THE DALLES     SUNNY     51  43  74 NE9       30.36F
YAKIMA         FOG       37  35  92 E5        30.40F VSB 1/4
ELLENSBURG     SUNNY     53  35  50 VRB3      30.35F
WENATCHEE      CLOUDY    35  32  88 SE6       30.42F
OMAK           CLOUDY    36  32  85 CALM      30.43S

...SOUTHERN BRITISH COLUMBIA...

CITY           SKY/WX    TMP DP  RH WIND       PRES   REMARKS
PENTICTON      DRIZZLE   36  34  93 S5        30.44S

...WESTERN MONTANA...

CITY           SKY/WX    TMP DP  RH WIND       PRES   REMARKS
MISSOULA       SUNNY     41  32  70 S3        30.31F

...NEIGHBORING CITIES...

CITY           SKY/WX    TMP DP  RH WIND       PRES   REMARKS
SEATTLE        PTSUNNY   50  44  80 CALM      30.38F
CALGARY        MOSUNNY   41  25  52 SE8       30.25R



USA.gov is the U.S. government's official web portal to all federal, state and local government web resources and services.